TimePDT,TemperatureF,Dew PointF,Humidity,Sea Level PressureIn,VisibilityMPH,Wind Direction,Wind SpeedMPH,Gust SpeedMPH,PrecipitationIn,Events,Conditions,WindDirDegrees,DateUTC
12:15 AM,60.8,14.0,16,29.73,10.0,NNW,10.4,-,N/A,,Clear,340,2013-03-22 07:15:00
12:35 AM,59.0,14.0,17,29.73,10.0,NW,5.8,-,N/A,,Clear,320,2013-03-22 07:35:00
12:55 AM,64.4,8.6,11,29.73,10.0,NNW,11.5,-,N/A,,Clear,330,2013-03-22 07:55:00
1:15 AM,62.6,5.0,10,29.73,10.0,NW,11.5,-,N/A,,Clear,320,2013-03-22 08:15:00
1:35 AM,62.6,3.2,9,29.73,10.0,NW,11.5,-,N/A,,Clear,320,2013-03-22 08:35:00
1:55 AM,62.6,3.2,9,29.73,10.0,NW,15.0,-,N/A,,Clear,320,2013-03-22 08:55:00
2:15 AM,62.6,5.0,10,29.74,10.0,NW,13.8,-,N/A,,Clear,320,2013-03-22 09:15:00
2:35 AM,60.8,8.6,13,29.74,10.0,North,15.0,-,N/A,,Clear,350,2013-03-22 09:35:00
2:55 AM,60.8,14.0,16,29.74,10.0,North,21.9,-,N/A,,Clear,360,2013-03-22 09:55:00
3:15 AM,60.8,14.0,16,29.74,10.0,North,17.3,-,N/A,,Clear,360,2013-03-22 10:15:00
3:35 AM,62.6,12.2,14,29.74,10.0,North,17.3,23.0,N/A,,Clear,350,2013-03-22 10:35:00
3:55 AM,60.8,14.0,16,29.75,10.0,North,12.7,20.7,N/A,,Clear,360,2013-03-22 10:55:00
4:15 AM,59.0,12.2,16,29.76,10.0,NNW,8.1,-,N/A,,Clear,340,2013-03-22 11:15:00
4:35 AM,57.2,12.2,17,29.77,10.0,Calm,Calm,-,N/A,Thunderstorm,Clear,0,2013-03-22 11:35:00
4:55 AM,57.2,12.2,17,29.78,10.0,Calm,Calm,-,N/A,,Clear,0,2013-03-22 11:55:00
5:15 AM,57.2,12.2,17,29.78,10.0,NNW,15.0,19.6,N/A,,Clear,340,2013-03-22 12:15:00
5:35 AM,59.0,12.2,16,29.79,10.0,North,11.5,-,N/A,,Clear,360,2013-03-22 12:35:00
5:55 AM,59.0,10.4,15,29.80,10.0,North,13.8,-,N/A,,Clear,360,2013-03-22 12:55:00
6:15 AM,57.2,10.4,16,29.81,10.0,North,13.8,17.3,N/A,,Clear,350,2013-03-22 13:15:00
6:35 AM,57.2,10.4,16,29.82,10.0,North,11.5,-,N/A,,Clear,350,2013-03-22 13:35:00
6:55 AM,57.2,10.4,16,29.84,10.0,NNW,9.2,-,N/A,,Clear,340,2013-03-22 13:55:00
7:15 AM,55.4,10.4,17,29.85,10.0,NNW,5.8,-,N/A,,Clear,330,2013-03-22 14:15:00
7:35 AM,57.2,10.4,16,29.85,10.0,Calm,Calm,-,N/A,Thunderstorm,Clear,0,2013-03-22 14:35:00
7:55 AM,57.2,12.2,17,29.85,10.0,WNW,5.8,-,N/A,,Clear,300,2013-03-22 14:55:00
8:15 AM,59.0,10.4,15,29.85,10.0,NW,10.4,-,N/A,,Clear,310,2013-03-22 15:15:00
8:35 AM,60.8,8.6,13,29.86,10.0,NW,8.1,-,N/A,,Clear,320,2013-03-22 15:35:00
8:55 AM,62.6,8.6,12,29.86,10.0,NNE,6.9,-,N/A,,Clear,20,2013-03-22 15:55:00
9:15 AM,62.6,6.8,11,29.86,10.0,NNW,5.8,-,N/A,,Clear,340,2013-03-22 16:15:00
9:35 AM,64.4,8.6,11,29.86,10.0,NNW,6.9,-,N/A,,Clear,340,2013-03-22 16:35:00
9:55 AM,64.4,6.8,10,29.86,10.0,NNW,6.9,-,N/A,,Clear,340,2013-03-22 16:55:00
10:15 AM,64.4,5.0,10,29.86,10.0,NE,4.6,-,N/A,,Clear,40,2013-03-22 17:15:00
10:35 AM,64.4,5.0,10,29.86,10.0,WNW,5.8,-,N/A,,Clear,290,2013-03-22 17:35:00
10:55 AM,66.2,5.0,9,29.86,10.0,NW,6.9,-,N/A,Thunderstorm,Clear,310,2013-03-22 17:55:00
11:15 AM,66.2,1.4,8,29.85,10.0,NNW,8.1,17.3,N/A,,Clear,330,2013-03-22 18:15:00
11:35 AM,66.2,1.4,8,29.85,10.0,WNW,10.4,-,N/A,,Clear,300,2013-03-22 18:35:00
11:55 AM,68.0,-2.2,6,29.84,10.0,NW,12.7,-,N/A,,Clear,310,2013-03-22 18:55:00
12:15 PM,68.0,-2.2,6,29.84,10.0,NW,9.2,17.3,N/A,,Clear,310,2013-03-22 19:15:00
12:35 PM,69.8,-2.2,6,29.83,10.0,West,8.1,-,N/A,,Clear,280,2013-03-22 19:35:00
12:55 PM,71.6,-2.2,5,29.83,10.0,WNW,10.4,18.4,N/A,Thunderstorm,Clear,300,2013-03-22 19:55:00
1:15 PM,69.8,-2.2,6,29.82,10.0,NW,10.4,-,N/A,,Clear,320,2013-03-22 20:15:00
1:35 PM,71.6,-0.4,6,29.80,10.0,WNW,11.5,-,N/A,,Clear,290,2013-03-22 20:35:00
1:55 PM,71.6,-0.4,6,29.79,10.0,NNW,8.1,-,N/A,,Clear,340,2013-03-22 20:55:00
2:15 PM,73.4,1.4,6,29.78,10.0,South,5.8,16.1,N/A,,Clear,170,2013-03-22 21:15:00
2:35 PM,73.4,1.4,6,29.78,10.0,NW,8.1,-,N/A,,Clear,320,2013-03-22 21:35:00
2:55 PM,73.4,-0.4,5,29.77,10.0,NW,15.0,18.4,N/A,,Clear,320,2013-03-22 21:55:00
3:15 PM,73.4,-2.2,5,29.77,10.0,NW,16.1,21.9,N/A,,Clear,320,2013-03-22 22:15:00
3:35 PM,73.4,-5.8,4,29.77,10.0,NNW,12.7,23.0,N/A,,Clear,330,2013-03-22 22:35:00
3:55 PM,73.4,-7.6,4,29.77,10.0,NNW,15.0,24.2,N/A,,Clear,330,2013-03-22 22:55:00
4:15 PM,73.4,-7.6,4,29.77,10.0,NNW,16.1,21.9,N/A,,Clear,330,2013-03-22 23:15:00
4:35 PM,73.4,-9.4,4,29.76,10.0,NNW,13.8,-,N/A,,Clear,330,2013-03-22 23:35:00
4:55 PM,73.4,-11.2,4,29.76,10.0,NW,11.5,17.3,N/A,,Clear,320,2013-03-22 23:55:00
5:15 PM,73.4,-11.2,4,29.76,10.0,NW,11.5,19.6,N/A,,Clear,320,2013-03-23 00:15:00
5:35 PM,73.4,-13.0,4,29.75,10.0,NW,11.5,-,N/A,Thunderstorm,Clear,320,2013-03-23 00:35:00
5:55 PM,71.6,-14.8,4,29.75,10.0,NNW,11.5,-,N/A,,Clear,330,2013-03-23 00:55:00
6:15 PM,71.6,-13.0,4,29.76,10.0,NW,11.5,-,N/A,,Clear,320,2013-03-23 01:15:00
6:35 PM,69.8,-13.0,4,29.76,10.0,NW,10.4,-,N/A,,Clear,320,2013-03-23 01:35:00
6:55 PM,68.0,-13.0,4,29.76,10.0,NNW,10.4,18.4,N/A,,Clear,330,2013-03-23 01:55:00
7:15 PM,68.0,-13.0,4,29.77,10.0,NNW,12.7,18.4,N/A,,Clear,330,2013-03-23 02:15:00
7:35 PM,68.0,-11.2,4,29.77,10.0,NNW,13.8,-,N/A,,Clear,340,2013-03-23 02:35:00
7:55 PM,66.2,-11.2,4,29.78,10.0,NNW,12.7,-,N/A,,Clear,340,2013-03-23 02:55:00
8:15 PM,66.2,-9.4,5,29.80,10.0,NNW,8.1,-,N/A,,Clear,330,2013-03-23 03:15:00
8:35 PM,66.2,-13.0,4,29.81,10.0,NW,10.4,19.6,N/A,,Clear,320,2013-03-23 03:35:00
8:55 PM,66.2,-14.8,4,29.82,10.0,NW,9.2,-,N/A,,Clear,310,2013-03-23 03:55:00
9:15 PM,64.4,-16.6,4,29.83,10.0,NW,9.2,-,N/A,,Clear,320,2013-03-23 04:15:00
9:35 PM,64.4,-14.8,4,29.84,10.0,NNW,11.5,-,N/A,,Clear,330,2013-03-23 04:35:00
9:55 PM,64.4,-16.6,4,29.84,10.0,NNW,12.7,20.7,N/A,,Clear,330,2013-03-23 04:55:00
10:15 PM,64.4,-16.6,4,29.84,10.0,NW,16.1,19.6,N/A,Thunderstorm,Clear,320,2013-03-23 05:15:00
10:35 PM,62.6,-18.4,4,29.85,10.0,NW,16.1,23.0,N/A,,Clear,320,2013-03-23 05:35:00
10:55 PM,62.6,-22.0,4,29.85,10.0,NW,23.0,32.2,N/A,,Clear,320,2013-03-23 05:55:00
11:15 PM,62.6,-22.0,4,29.85,10.0,NW,21.9,28.8,N/A,,Clear,320,2013-03-23 06:15:00
11:35 PM,62.6,-22.0,4,29.85,10.0,NNW,27.6,33.4,N/A,,Clear,330,2013-03-23 06:35:00
11:55 PM,60.8,-20.2,4,29.86,10.0,NW,21.9,32.2,N/A,,Clear,320,2013-03-23 06:55:00